| time (UTC) | temp C | wind direction | speed KPH | gust KPH | rain 1hr cm | rain 24hr cm | rain mn cm | humidity % | barometer mb |
| 20260503050540 | 10 | 5 | 8.0 | 19.3 | 0.00 | 0.00 | 0.00 | 47 | 1008.5 |
| 20260503050036 | 10 | 67 | 9.7 | 20.9 | 0.00 | 0.00 | 0.00 | 47 | 1008.5 |
| 20260503050018 | 10 | 68 | 8.0 | 20.9 | 0.00 | 0.00 | 0.00 | 47 | 1008.5 |
| 20260503045036 | 10 | 49 | 8.0 | 19.3 | 0.00 | 0.00 | 0.00 | 47 | 1008.7 |
| 20260503044536 | 10 | 61 | 9.7 | 19.3 | 0.00 | 0.00 | 0.00 | 48 | 1009.1 |
| 20260503044300 | 10 | 344 | 8.0 | 16.1 | 0.00 | 0.00 | 0.00 | 48 | 1009.0 |
| 20260503043536 | 10 | 36 | 8.0 | 16.1 | 0.00 | 0.00 | 0.00 | 50 | 1008.9 |
| 20260503043036 | 10 | 59 | 9.7 | 22.5 | 0.00 | 0.00 | 0.00 | 49 | 1009.1 |
| 20260503042804 | 10 | 0 | 9.7 | 22.5 | 0.00 | 0.00 | 0.00 | 49 | 1009.0 |
| 20260503042038 | 10 | 19 | 9.7 | 19.3 | 0.00 | 0.00 | 0.00 | 51 | 1009.0 |
| 20260503041536 | 10 | 68 | 9.7 | 17.7 | 0.00 | 0.00 | 0.00 | 53 | 1009.0 |
| 20260503041036 | 9 | 72 | 9.7 | 17.7 | 0.00 | 0.00 | 0.00 | 57 | 1008.9 |
| 20260503040537 | 9 | 12 | 8.0 | 16.1 | 0.00 | 0.00 | 0.00 | 61 | 1009.1 |
| 20260503040033 | 8 | 80 | 6.4 | 16.1 | 0.00 | 0.00 | 0.00 | 68 | 1009.0 |
| 20260503035532 | 8 | 19 | 6.4 | 12.9 | 0.00 | 0.00 | 0.00 | 72 | 1009.1 |
| 20260503035033 | 8 | 39 | 6.4 | 12.9 | 0.00 | 0.00 | 0.00 | 72 | 1009.2 |
| 20260503035017 | 8 | 15 | 3.2 | 12.9 | 0.00 | 0.00 | 0.00 | 72 | 1009.0 |
| 20260503034029 | 9 | 49 | 1.6 | 9.7 | 0.00 | 0.00 | 0.00 | 72 | 1009.1 |
| 20260503033529 | 9 | 14 | 1.6 | 4.8 | 0.00 | 0.00 | 0.00 | 72 | 1009.2 |
| 20260503033034 | 9 | 58 | 3.2 | 4.8 | 0.00 | 0.00 | 0.00 | 72 | 1009.0 |
| 20260503032529 | 9 | 49 | 3.2 | 4.8 | 0.00 | 0.00 | 0.00 | 72 | 1008.9 |
| 20260503032029 | 9 | 42 | 1.6 | 4.8 | 0.00 | 0.00 | 0.00 | 72 | 1009.2 |
| 20260503031529 | 9 | 44 | 0.0 | 4.8 | 0.00 | 0.00 | 0.00 | 72 | 1009.3 |
| 20260503031030 | 9 | 51 | 0.0 | 3.2 | 0.00 | 0.00 | 0.00 | 71 | 1009.4 |
| 20260503030753 | 9 | 51 | 0.0 | 3.2 | 0.00 | 0.00 | 0.00 | 71 | 1009.4 |
| 20260503030030 | 8 | 38 | 1.6 | 3.2 | 0.00 | 0.00 | 0.00 | 71 | 1009.4 |
| 20260503025525 | 8 | 38 | 3.2 | 4.8 | 0.00 | 0.00 | 0.00 | 70 | 1009.5 |
| 20260503025025 | 8 | 71 | 3.2 | 4.8 | 0.00 | 0.00 | 0.00 | 70 | 1009.3 |
| 20260503024524 | 9 | 74 | 3.2 | 4.8 | 0.00 | 0.00 | 0.00 | 70 | 1009.1 |
| 20260503024024 | 9 | 92 | 3.2 | 4.8 | 0.00 | 0.00 | 0.00 | 70 | 1009.1 |
| 20260503023525 | 9 | 101 | 3.2 | 4.8 | 0.00 | 0.00 | 0.00 | 69 | 1009.2 |
| 20260503023025 | 9 | 75 | 3.2 | 6.4 | 0.00 | 0.00 | 0.00 | 69 | 1009.2 |
| 20260503022524 | 9 | 82 | 3.2 | 6.4 | 0.00 | 0.00 | 0.00 | 69 | 1009.2 |
| 20260503022025 | 9 | 74 | 3.2 | 6.4 | 0.00 | 0.00 | 0.00 | 69 | 1009.3 |
| 20260503021526 | 9 | 74 | 3.2 | 6.4 | 0.00 | 0.00 | 0.00 | 68 | 1009.2 |
| 20260503021026 | 9 | 86 | 3.2 | 6.4 | 0.00 | 0.00 | 0.00 | 68 | 1009.2 |
| 20260503020757 | 10 | 67 | 3.2 | 6.4 | 0.00 | 0.00 | 0.00 | 68 | 1009.3 |
| 20260503020243 | 10 | 81 | 1.6 | 6.4 | 0.00 | 0.00 | 0.00 | 68 | 1009.3 |
| 20260503015746 | 10 | 78 | 0.0 | 3.2 | 0.00 | 0.00 | 0.00 | 68 | 1009.4 |
| 20260503015250 | 10 | 59 | 0.0 | 0.0 | 0.00 | 0.00 | 0.00 | 68 | 1009.5 |
| 20260503014522 | 10 | 59 | 1.6 | 4.8 | 0.00 | 0.00 | 0.00 | 67 | 1009.5 |
| 20260503014517 | 10 | 59 | 1.6 | 4.8 | 0.00 | 0.00 | 0.00 | 67 | 1009.5 |
| 20260503013522 | 10 | 142 | 0.0 | 0.0 | 0.00 | 0.00 | 0.00 | 67 | 1009.5 |
| 20260503013021 | 10 | 198 | 0.0 | 0.0 | 0.00 | 0.00 | 0.00 | 67 | 1009.4 |
| 20260503012743 | 10 | 198 | 0.0 | 0.0 | 0.00 | 0.00 | 0.00 | 67 | 1009.3 |
| 20260503012020 | 10 | 198 | 0.0 | 0.0 | 0.00 | 0.00 | 0.00 | 67 | 1009.4 |
| 20260503011518 | 10 | 198 | 0.0 | 0.0 | 0.00 | 0.00 | 0.00 | 67 | 1009.4 |
| 20260503011231 | 11 | 198 | 0.0 | 0.0 | 0.00 | 0.00 | 0.00 | 67 | 1009.3 |
| 20260503011113 | 10 | 198 | 0.0 | 0.0 | 0.00 | 0.00 | 0.00 | 67 | 1009.3 |
| 20260503010016 | 11 | 198 | 0.0 | 3.2 | 0.00 | 0.00 | 0.00 | 67 | 1009.4 |
| 20260503005508 | 11 | 198 | 1.6 | 4.8 | 0.00 | 0.00 | 0.00 | 67 | 1009.2 |
| 20260503005003 | 11 | 203 | 3.2 | 6.4 | 0.00 | 0.00 | 0.00 | 67 | 1009.2 |
| 20260503004457 | 11 | 205 | 3.2 | 6.4 | 0.00 | 0.00 | 0.00 | 66 | 1009.1 |
| 20260503003950 | 11 | 194 | 3.2 | 6.4 | 0.00 | 0.00 | 0.00 | 66 | 1009.1 |
| 20260503003445 | 11 | 202 | 3.2 | 6.4 | 0.00 | 0.00 | 0.00 | 65 | 1009.0 |
| 20260503003205 | 11 | 213 | 1.6 | 6.4 | 0.00 | 0.00 | 0.00 | 65 | 1009.0 |
| 20260503002433 | 11 | 194 | 1.6 | 4.8 | 0.00 | 0.00 | 0.00 | 64 | 1009.0 |
| 20260503001927 | 11 | 211 | 0.0 | 3.2 | 0.00 | 0.00 | 0.00 | 63 | 1009.0 |
| 20260503001639 | 11 | 249 | 0.0 | 1.6 | 0.00 | 0.00 | 0.00 | 63 | 1009.0 |
| 20260503000915 | 11 | 249 | 1.6 | 3.2 | 0.00 | 0.00 | 0.00 | 63 | 1008.8 |
| 20260503000408 | 11 | 249 | 1.6 | 3.2 | 0.00 | 0.00 | 0.00 | 63 | 1008.6 |
| 20260502235901 | 11 | 249 | 1.6 | 4.8 | 0.00 | 0.00 | 0.00 | 63 | 1008.7 |
| 20260502235355 | 11 | 249 | 1.6 | 4.8 | 0.00 | 0.00 | 0.00 | 63 | 1008.8 |
| 20260502234848 | 11 | 223 | 0.0 | 4.8 | 0.00 | 0.00 | 0.00 | 63 | 1008.8 |
| 20260502234342 | 11 | 223 | 1.6 | 4.8 | 0.00 | 0.00 | 0.00 | 63 | 1008.7 |
| 20260502233837 | 12 | 205 | 1.6 | 4.8 | 0.00 | 0.00 | 0.00 | 63 | 1008.8 |
| 20260502233331 | 12 | 252 | 3.2 | 4.8 | 0.00 | 0.00 | 0.00 | 62 | 1008.8 |
| 20260502233053 | 12 | 242 | 3.2 | 4.8 | 0.00 | 0.00 | 0.00 | 62 | 1008.8 |
| 20260502232540 | 12 | 212 | 3.2 | 6.4 | 0.00 | 0.00 | 0.00 | 62 | 1008.8 |
| 20260502232035 | 12 | 223 | 3.2 | 6.4 | 0.00 | 0.00 | 0.00 | 62 | 1008.8 |
| 20260502231312 | 12 | 234 | 3.2 | 6.4 | 0.00 | 0.00 | 0.00 | 62 | 1008.9 |
| 20260502230800 | 12 | 243 | 1.6 | 4.8 | 0.00 | 0.00 | 0.00 | 62 | 1008.9 |
| 20260502230524 | 12 | 236 | 1.6 | 3.2 | 0.00 | 0.00 | 0.00 | 62 | 1008.9 |
| 20260502225749 | 12 | 236 | 1.6 | 4.8 | 0.00 | 0.00 | 0.00 | 62 | 1008.9 |
| 20260502225243 | 12 | 222 | 1.6 | 4.8 | 0.00 | 0.00 | 0.00 | 62 | 1008.9 |
| 20260502224737 | 12 | 217 | 1.6 | 6.4 | 0.00 | 0.00 | 0.00 | 62 | 1008.8 |
| 20260502224231 | 12 | 260 | 3.2 | 9.7 | 0.00 | 0.00 | 0.00 | 62 | 1008.9 |
| 20260502223725 | 12 | 274 | 4.8 | 9.7 | 0.00 | 0.00 | 0.00 | 62 | 1008.9 |
| 20260502223224 | 12 | 252 | 4.8 | 11.3 | 0.00 | 0.00 | 0.00 | 62 | 1008.9 |
| 20260502222713 | 12 | 228 | 6.4 | 11.3 | 0.00 | 0.00 | 0.00 | 62 | 1008.8 |
| 20260502222207 | 12 | 242 | 6.4 | 12.9 | 0.00 | 0.00 | 0.00 | 62 | 1008.7 |
| 20260502221701 | 12 | 275 | 6.4 | 12.9 | 0.00 | 0.00 | 0.00 | 63 | 1008.8 |
| 20260502221155 | 12 | 257 | 6.4 | 11.3 | 0.00 | 0.00 | 0.00 | 63 | 1008.7 |
| 20260502220909 | 12 | 250 | 6.4 | 11.3 | 0.00 | 0.00 | 0.00 | 63 | 1008.7 |
| 20260502220143 | 12 | 214 | 6.4 | 11.3 | 0.00 | 0.00 | 0.00 | 63 | 1008.7 |
| 20260502215636 | 12 | 236 | 4.8 | 11.3 | 0.00 | 0.00 | 0.00 | 63 | 1008.6 |
| 20260502215131 | 12 | 215 | 4.8 | 9.7 | 0.00 | 0.00 | 0.00 | 63 | 1008.8 |
| 20260502214625 | 12 | 226 | 4.8 | 9.7 | 0.00 | 0.00 | 0.00 | 63 | 1008.8 |
| 20260502214339 | 12 | 205 | 6.4 | 11.3 | 0.00 | 0.00 | 0.00 | 63 | 1008.8 |
| 20260502213613 | 12 | 209 | 6.4 | 11.3 | 0.00 | 0.00 | 0.00 | 63 | 1008.8 |
| 20260502213107 | 12 | 218 | 6.4 | 11.3 | 0.00 | 0.00 | 0.00 | 62 | 1008.8 |
| 20260502212601 | 12 | 217 | 6.4 | 11.3 | 0.00 | 0.00 | 0.00 | 62 | 1008.8 |
| 20260502212055 | 12 | 263 | 4.8 | 11.3 | 0.00 | 0.00 | 0.00 | 62 | 1008.8 |
| 20260502211549 | 12 | 223 | 4.8 | 8.0 | 0.00 | 0.00 | 0.00 | 63 | 1008.9 |
| 20260502211043 | 12 | 237 | 4.8 | 8.0 | 0.00 | 0.00 | 0.00 | 62 | 1008.9 |
| 20260502210537 | 12 | 240 | 4.8 | 12.9 | 0.00 | 0.00 | 0.00 | 63 | 1008.7 |
| 20260502210031 | 12 | 241 | 4.8 | 12.9 | 0.00 | 0.00 | 0.00 | 63 | 1008.7 |
| 20260502205525 | 12 | 233 | 8.0 | 12.9 | 0.00 | 0.00 | 0.00 | 62 | 1008.8 |
| 20260502205019 | 12 | 209 | 8.0 | 12.9 | 0.00 | 0.00 | 0.00 | 62 | 1008.9 |
| 20260502204513 | 12 | 221 | 6.4 | 11.3 | 0.00 | 0.00 | 0.00 | 63 | 1009.0 |
| 20260502204007 | 12 | 208 | 4.8 | 11.3 | 0.00 | 0.00 | 0.00 | 64 | 1008.9 |
| 20260502203502 | 12 | 198 | 4.8 | 11.3 | 0.00 | 0.00 | 0.00 | 65 | 1008.8 |
| 20260502203002 | 12 | 234 | 6.4 | 12.9 | 0.00 | 0.00 | 0.00 | 65 | 1008.9 |
| 20260502202502 | 12 | 211 | 6.4 | 12.9 | 0.00 | 0.00 | 0.00 | 65 | 1009.0 |
| 20260502202225 | 12 | 191 | 6.4 | 9.7 | 0.00 | 0.00 | 0.00 | 66 | 1009.0 |
| 20260502201729 | 12 | 181 | 6.4 | 9.7 | 0.00 | 0.00 | 0.00 | 65 | 1009.1 |
| 20260502201002 | 11 | 184 | 6.4 | 14.5 | 0.00 | 0.00 | 0.00 | 66 | 1009.2 |
| 20260502200501 | 11 | 184 | 9.7 | 16.1 | 0.00 | 0.00 | 0.00 | 65 | 1009.2 |
| 20260502200002 | 11 | 195 | 9.7 | 16.1 | 0.00 | 0.00 | 0.00 | 65 | 1009.3 |
| 20260502195503 | 12 | 210 | 8.0 | 11.3 | 0.00 | 0.00 | 0.00 | 66 | 1009.3 |
| 20260502195002 | 11 | 259 | 6.4 | 11.3 | 0.00 | 0.00 | 0.00 | 66 | 1009.4 |
| 20260502194502 | 11 | 215 | 6.4 | 12.9 | 0.00 | 0.00 | 0.00 | 66 | 1009.4 |
| 20260502194221 | 11 | 215 | 6.4 | 12.9 | 0.00 | 0.00 | 0.00 | 66 | 1009.4 |
| 20260502193502 | 11 | 215 | 8.0 | 14.5 | 0.00 | 0.00 | 0.00 | 66 | 1009.4 |
| 20260502193002 | 11 | 209 | 8.0 | 16.1 | 0.00 | 0.00 | 0.00 | 66 | 1009.5 |
| 20260502192503 | 11 | 200 | 8.0 | 16.1 | 0.00 | 0.00 | 0.00 | 66 | 1009.5 |
| 20260502192000 | 11 | 205 | 6.4 | 12.9 | 0.00 | 0.00 | 0.00 | 65 | 1009.6 |
| 20260502191501 | 11 | 187 | 6.4 | 12.9 | 0.00 | 0.00 | 0.00 | 65 | 1009.7 |
| 20260502190955 | 11 | 196 | 6.4 | 9.7 | 0.00 | 0.00 | 0.00 | 65 | 1009.7 |
| 20260502190449 | 11 | 215 | 6.4 | 11.3 | 0.00 | 0.00 | 0.00 | 65 | 1009.7 |
| 20260502185942 | 11 | 176 | 6.4 | 11.3 | 0.00 | 0.00 | 0.00 | 65 | 1009.8 |
| 20260502185436 | 11 | 196 | 6.4 | 11.3 | 0.00 | 0.00 | 0.00 | 65 | 1009.8 |
| 20260502185419 | 11 | 196 | 6.4 | 11.3 | 0.00 | 0.00 | 0.00 | 65 | 1010.0 |
| 20260502184425 | 11 | 178 | 6.4 | 11.3 | 0.00 | 0.00 | 0.00 | 65 | 1010.0 |
| 20260502183416 | 11 | 217 | 6.4 | 12.9 | 0.00 | 0.00 | 0.00 | 65 | 1010.0 |
| 20260502183133 | 11 | 218 | 6.4 | 12.9 | 0.00 | 0.00 | 0.00 | 65 | 1010.0 |
| 20260502182416 | 11 | 219 | 8.0 | 16.1 | 0.00 | 0.00 | 0.00 | 66 | 1010.0 |
| 20260502181916 | 11 | 207 | 8.0 | 16.1 | 0.00 | 0.00 | 0.00 | 65 | 1009.9 |
| 20260502181634 | 11 | 200 | 6.4 | 12.9 | 0.00 | 0.00 | 0.00 | 65 | 1009.8 |
| 20260502180916 | 11 | 205 | 6.4 | 14.5 | 0.00 | 0.00 | 0.00 | 65 | 1009.9 |
| 20260502180415 | 11 | 224 | 6.4 | 14.5 | 0.00 | 0.00 | 0.00 | 65 | 1010.0 |
| 20260502170416 | 11 | 246 | 4.8 | 11.3 | 0.00 | 0.00 | 0.00 | 64 | 1010.4 |
| 20260502163916 | 11 | 254 | 3.2 | 9.7 | 0.00 | 0.00 | 0.00 | 65 | 1010.3 |
| 20260502163417 | 11 | 263 | 4.8 | 11.3 | 0.00 | 0.00 | 0.00 | 65 | 1010.3 |
| 20260502162915 | 11 | 240 | 4.8 | 11.3 | 0.00 | 0.00 | 0.00 | 65 | 1010.4 |
| 20260502162416 | 11 | 234 | 6.4 | 14.5 | 0.00 | 0.00 | 0.00 | 65 | 1010.4 |
| 20260502161914 | 11 | 299 | 6.4 | 14.5 | 0.00 | 0.00 | 0.00 | 65 | 1010.4 |
| 20260502161415 | 11 | 273 | 6.4 | 12.9 | 0.00 | 0.00 | 0.00 | 65 | 1010.4 |
| 20260502160908 | 11 | 304 | 6.4 | 12.9 | 0.00 | 0.00 | 0.00 | 65 | 1010.3 |
| 20260502160628 | 11 | 270 | 8.0 | 16.1 | 0.00 | 0.00 | 0.00 | 65 | 1010.5 |
| 20260502151902 | 11 | 242 | 9.7 | 16.1 | 0.00 | 0.00 | 0.00 | 64 | 1010.8 |
| 20260502151622 | 11 | 226 | 8.0 | 16.1 | 0.00 | 0.00 | 0.00 | 64 | 1010.8 |
| 20260502150901 | 11 | 237 | 9.7 | 19.3 | 0.00 | 0.00 | 0.00 | 64 | 1010.7 |
| 20260502150623 | 11 | 195 | 11.3 | 24.1 | 0.00 | 0.00 | 0.00 | 63 | 1010.8 |
| 20260502150120 | 11 | 245 | 11.3 | 24.1 | 0.00 | 0.00 | 0.00 | 64 | 1010.8 |
| 20260502130705 | 12 | 299 | 3.2 | 6.4 | 0.00 | 0.00 | 0.00 | 60 | 1010.6 |
| 20260502130159 | 12 | 284 | 3.2 | 6.4 | 0.00 | 0.00 | 0.00 | 61 | 1010.6 |
| 20260502123628 | 11 | 0 | 4.8 | 14.5 | 0.00 | 0.00 | 0.00 | 62 | 1011.3 |
| 20260502123121 | 11 | 253 | 4.8 | 14.5 | 0.00 | 0.00 | 0.00 | 62 | 1011.3 |
| 20260502122616 | 11 | 287 | 4.8 | 14.5 | 0.00 | 0.00 | 0.00 | 62 | 1011.2 |
| 20260502122110 | 11 | 295 | 4.8 | 14.5 | 0.00 | 0.00 | 0.00 | 62 | 1011.2 |
| 20260502121604 | 11 | 325 | 6.4 | 14.5 | 0.00 | 0.00 | 0.00 | 62 | 1011.3 |
| 20260502121058 | 11 | 341 | 6.4 | 17.7 | 0.00 | 0.00 | 0.00 | 62 | 1011.4 |
| 20260502120812 | 11 | 322 | 6.4 | 17.7 | 0.00 | 0.00 | 0.00 | 61 | 1011.4 |
| 20260502115539 | 11 | 279 | 6.4 | 16.1 | 0.00 | 0.00 | 0.00 | 63 | 1011.4 |
| 20260502115306 | 11 | 287 | 8.0 | 14.5 | 0.00 | 0.00 | 0.00 | 63 | 1011.3 |
| 20260502115022 | 11 | 257 | 8.0 | 19.3 | 0.00 | 0.00 | 0.00 | 63 | 1011.2 |
| 20260502114022 | 11 | 300 | 9.7 | 19.3 | 0.00 | 0.00 | 0.00 | 63 | 1011.1 |
| 20260502113516 | 11 | 261 | 9.7 | 17.7 | 0.00 | 0.00 | 0.00 | 63 | 1011.1 |
| 20260502113017 | 11 | 286 | 8.0 | 17.7 | 0.00 | 0.00 | 0.00 | 63 | 1011.0 |
| 20260502112516 | 11 | 267 | 11.3 | 22.5 | 0.00 | 0.00 | 0.00 | 63 | 1010.9 |
| 20260502112238 | 11 | 269 | 11.3 | 22.5 | 0.00 | 0.00 | 0.00 | 63 | 1010.9 |
| 20260502111516 | 11 | 281 | 11.3 | 20.9 | 0.00 | 0.00 | 0.00 | 63 | 1010.8 |
| 20260502111016 | 11 | 248 | 12.9 | 25.7 | 0.00 | 0.00 | 0.00 | 63 | 1011.0 |
| 20260502110513 | 11 | 242 | 12.9 | 25.7 | 0.00 | 0.00 | 0.00 | 63 | 1010.9 |
| 20260502110013 | 11 | 250 | 11.3 | 19.3 | 0.00 | 0.00 | 0.00 | 63 | 1010.8 |
| 20260502105512 | 11 | 288 | 11.3 | 19.3 | 0.00 | 0.00 | 0.00 | 63 | 1010.8 |
| 20260502105010 | 11 | 216 | 9.7 | 20.9 | 0.00 | 0.00 | 0.00 | 63 | 1010.7 |
| 20260502104511 | 11 | 263 | 11.3 | 24.1 | 0.00 | 0.00 | 0.00 | 63 | 1010.6 |
| 20260502104013 | 11 | 277 | 11.3 | 24.1 | 0.00 | 0.00 | 0.00 | 63 | 1010.7 |
| 20260502103510 | 11 | 250 | 11.3 | 24.1 | 0.00 | 0.00 | 0.00 | 63 | 1010.7 |
| 20260502103011 | 11 | 255 | 12.9 | 25.7 | 0.00 | 0.00 | 0.00 | 63 | 1010.5 |
| 20260502102511 | 11 | 306 | 12.9 | 25.7 | 0.00 | 0.00 | 0.00 | 63 | 1010.4 |
| 20260502102453 | 11 | 306 | 12.9 | 27.4 | 0.00 | 0.00 | 0.00 | 63 | 1010.5 |
| 20260502101736 | 11 | 225 | 12.9 | 27.4 | 0.00 | 0.00 | 0.00 | 64 | 1010.6 |
| 20260502101012 | 11 | 250 | 14.5 | 29.0 | 0.00 | 0.00 | 0.00 | 64 | 1010.5 |
| 20260502100733 | 11 | 261 | 14.5 | 29.0 | 0.00 | 0.00 | 0.00 | 64 | 1010.4 |
| 20260502090900 | 10 | 246 | 11.3 | 27.4 | 0.00 | 0.00 | 0.00 | 62 | 1010.2 |
| 20260502090619 | 10 | 277 | 12.9 | 27.4 | 0.00 | 0.00 | 0.00 | 62 | 1010.4 |
| 20260502071349 | 10 | 259 | 11.3 | 20.9 | 0.00 | 0.00 | 0.00 | 62 | 1010.6 |
| 20260502070848 | 10 | 259 | 9.7 | 20.9 | 0.00 | 0.00 | 0.00 | 62 | 1010.5 |
| 20260502070349 | 10 | 235 | 9.7 | 20.9 | 0.00 | 0.00 | 0.00 | 62 | 1010.5 |
| 20260502065849 | 10 | 229 | 9.7 | 19.3 | 0.00 | 0.00 | 0.00 | 61 | 1010.6 |
| 20260502065348 | 10 | 240 | 11.3 | 19.3 | 0.00 | 0.00 | 0.00 | 61 | 1010.7 |
| 20260502064848 | 10 | 244 | 11.3 | 20.9 | 0.00 | 0.00 | 0.00 | 61 | 1010.7 |
| 20260502064349 | 10 | 254 | 9.7 | 22.5 | 0.00 | 0.00 | 0.00 | 61 | 1010.8 |
| 20260502063850 | 10 | 286 | 8.0 | 22.5 | 0.00 | 0.00 | 0.00 | 61 | 1010.9 |
| 20260502063343 | 10 | 267 | 9.7 | 20.9 | 0.00 | 0.00 | 0.00 | 61 | 1010.9 |
| 20260502062837 | 10 | 244 | 9.7 | 20.9 | 0.00 | 0.00 | 0.00 | 61 | 1010.9 |
| 20260502062331 | 10 | 232 | 8.0 | 17.7 | 0.00 | 0.00 | 0.00 | 61 | 1010.8 |
| 20260502061825 | 10 | 228 | 8.0 | 17.7 | 0.00 | 0.00 | 0.00 | 60 | 1010.7 |
| 20260502061320 | 10 | 258 | 9.7 | 19.3 | 0.00 | 0.00 | 0.00 | 60 | 1010.9 |
| 20260502060813 | 10 | 238 | 6.4 | 19.3 | 0.00 | 0.00 | 0.00 | 60 | 1010.9 |
| 20260502060307 | 11 | 258 | 6.4 | 17.7 | 0.00 | 0.00 | 0.00 | 60 | 1011.0 |
| 20260502055801 | 11 | 268 | 8.0 | 19.3 | 0.00 | 0.00 | 0.00 | 60 | 1011.0 |
| 20260502055300 | 11 | 202 | 8.0 | 19.3 | 0.00 | 0.00 | 0.00 | 60 | 1011.0 |
| 20260502054758 | 11 | 249 | 8.0 | 17.7 | 0.00 | 0.00 | 0.00 | 60 | 1010.9 |
| 20260502054258 | 11 | 232 | 8.0 | 17.7 | 0.00 | 0.00 | 0.00 | 60 | 1010.8 |
| 20260502053800 | 11 | 253 | 9.7 | 16.1 | 0.00 | 0.00 | 0.00 | 59 | 1011.0 |
| 20260502053256 | 11 | 257 | 8.0 | 17.7 | 0.00 | 0.00 | 0.00 | 59 | 1010.9 |
| 20260502052757 | 11 | 261 | 8.0 | 19.3 | 0.00 | 0.00 | 0.00 | 59 | 1011.2 |
| 20260502052517 | 11 | 253 | 6.4 | 19.3 | 0.00 | 0.00 | 0.00 | 59 | 1011.2 |
| 20260502051754 | 11 | 252 | 6.4 | 14.5 | 0.00 | 0.00 | 0.00 | 59 | 1011.2 |
| 20260502051255 | 11 | 218 | 6.4 | 19.3 | 0.00 | 0.00 | 0.00 | 59 | 1011.3 |